• In United Kingdom
  • List of Countries
  • For 7 days
  • Water Temperature
  • Satellite Maps
  • Weather Map
  • Weather Widgets
  • user-avatar
    Login

    Hourly Weather Kitzbuhel

    Today, 25 November, Saturday

    Time Temperature Precipitation Wind Pressure Humidity
    00:00 +3°C° 0 mm 2 mps 675 mmHg 83%
    01:00 +3°C° 0 mm 3 mps 675 mmHg 82%
    02:00 +3°C° 0 mm 2 mps 674 mmHg 84%
    03:00 +3°C° 0 mm 2 mps 674 mmHg 86%
    04:00 +2°C° 0 mm 2 mps 673 mmHg 87%
    05:00 +2°C° 0 mm 2 mps 673 mmHg 87%
    06:00 +2°C° 0 mm 2 mps 672 mmHg 88%
    07:00 +2°C° 0 mm 3 mps 671 mmHg 88%
    08:00 +3°C° 0 mm 3 mps 671 mmHg 86%
    09:00 +4°C° 0 mm 3 mps 671 mmHg 85%
    10:00 +5°C° 0 mm 3 mps 670 mmHg 83%
    11:00 +5°C° 0 mm 3 mps 671 mmHg 84%
    12:00 +7°C° 0 mm 3 mps 671 mmHg 85%
    13:00 +7°C° 0 mm 3 mps 671 mmHg 86%
    14:00 +7°C° 1.1 mm 3 mps 671 mmHg 89%
    15:00 +6°C° 1.1 mm 2 mps 671 mmHg 92%
    16:00 +5°C° 1.1 mm 2 mps 671 mmHg 95%
    17:00 +4°C° 1.2 mm 2 mps 672 mmHg 95%
    18:00 +3°C° 1.2 mm 2 mps 672 mmHg 94%
    19:00 +3°C° 1.2 mm 2 mps 672 mmHg 94%
    20:00 +2°C° 0.9 mm 2 mps 672 mmHg 94%
    21:00 +2°C° 0.9 mm 2 mps 673 mmHg 94%
    22:00 +1°C° 0.9 mm 2 mps 673 mmHg 94%
    23:00 +1°C° 0.7 mm 2 mps 673 mmHg 94%

    Tomorrow, 26 November, Sunday

    Time Temperature Precipitation Wind Pressure Humidity
    00:00 +1°C° 0.7 mm 2 mps 674 mmHg 95%
    01:00 -1°C° 0.7 mm 3 mps 674 mmHg 95%
    02:00 -1°C° 0.7 mm 3 mps 675 mmHg 95%
    03:00 -2°C° 0.7 mm 3 mps 675 mmHg 95%
    04:00 -2°C° 0.7 mm 3 mps 675 mmHg 95%
    05:00 -2°C° 0.7 mm 3 mps 676 mmHg 95%
    06:00 -4°C° 0.7 mm 3 mps 676 mmHg 95%
    07:00 -3°C° 0.7 mm 2 mps 677 mmHg 95%
    08:00 -3°C° 0.4 mm 2 mps 677 mmHg 93%
    09:00 -3°C° 0.4 mm 2 mps 677 mmHg 92%
    10:00 -3°C° 0.4 mm 2 mps 678 mmHg 90%
    11:00 -3°C° 0.1 mm 2 mps 678 mmHg 87%
    12:00 -3°C° 0.1 mm 2 mps 678 mmHg 85%
    13:00 -2°C° 0.1 mm 2 mps 678 mmHg 82%
    14:00 -3°C° 0.1 mm 2 mps 678 mmHg 85%
    15:00 -4°C° 0.1 mm 2 mps 678 mmHg 87%
    16:00 -4°C° 0.1 mm 2 mps 679 mmHg 90%
    17:00 -5°C° 0.1 mm 2 mps 679 mmHg 91%
    18:00 -6°C° 0.1 mm 2 mps 679 mmHg 92%
    19:00 -6°C° 0.1 mm 2 mps 680 mmHg 94%
    20:00 -7°C° 0.1 mm 2 mps 680 mmHg 93%
    21:00 -7°C° 0.1 mm 2 mps 680 mmHg 93%
    22:00 -7°C° 0.1 mm 2 mps 680 mmHg 92%
    23:00 -7°C° 0.1 mm 2 mps 681 mmHg 91%

    Day after tomorrow, 27 November, Monday

    Time Temperature Precipitation Wind Pressure Humidity
    00:00 -8°C° 0.1 mm 2 mps 681 mmHg 90%
    01:00 -8°C° 0.1 mm 2 mps 681 mmHg 89%
    02:00 -8°C° 0.1 mm 2 mps 681 mmHg 89%
    03:00 -8°C° 0.1 mm 2 mps 681 mmHg 88%
    04:00 -8°C° 0.1 mm 2 mps 681 mmHg 88%
    05:00 -8°C° 0.1 mm 2 mps 681 mmHg 88%
    06:00 -8°C° 0.1 mm 2 mps 681 mmHg 88%
    07:00 -8°C° 0.1 mm 2 mps 681 mmHg 89%
    08:00 -7°C° 0 mm 2 mps 681 mmHg 87%
    09:00 -5°C° 0 mm 2 mps 682 mmHg 85%
    10:00 -4°C° 0 mm 2 mps 682 mmHg 83%
    11:00 -3°C° 0 mm 2 mps 682 mmHg 81%
    12:00 -1°C° 0 mm 1 mps 681 mmHg 79%
    13:00 0°C° 0 mm 1 mps 681 mmHg 76%
    14:00 -1°C° 0 mm 1 mps 680 mmHg 80%
    15:00 -2°C° 0 mm 1 mps 680 mmHg 83%
    16:00 -3°C° 0 mm 1 mps 679 mmHg 86%
    17:00 -4°C° 0 mm 1 mps 679 mmHg 85%
    18:00 -6°C° 0 mm 1 mps 679 mmHg 84%
    19:00 -8°C° 0 mm 2 mps 679 mmHg 83%
    20:00 -8°C° 0 mm 2 mps 679 mmHg 79%
    21:00 -8°C° 0 mm 2 mps 678 mmHg 75%
    22:00 -8°C° 0 mm 2 mps 678 mmHg 71%
    23:00 -7°C° 0 mm 2 mps 678 mmHg 69%

    28 November, Tuesday

    Time Temperature Precipitation Wind Pressure Humidity
    00:00 -7°C° 0 mm 2 mps 677 mmHg 68%
    01:00 -7°C° 0 mm 2 mps 676 mmHg 66%
    02:00 -7°C° 0 mm 2 mps 676 mmHg 65%
    03:00 -6°C° 0 mm 2 mps 675 mmHg 65%
    04:00 -6°C° 0 mm 2 mps 675 mmHg 64%
    05:00 -6°C° 0 mm 2 mps 674 mmHg 64%
    06:00 -6°C° 0 mm 2 mps 674 mmHg 64%
    07:00 -6°C° 0 mm 2 mps 673 mmHg 64%
    08:00 -4°C° 0 mm 2 mps 673 mmHg 65%
    09:00 0°C° 0 mm 1 mps 673 mmHg 66%
    10:00 +2°C° 0 mm 1 mps 673 mmHg 67%
    11:00 +3°C° 0 mm 1 mps 672 mmHg 69%
    12:00 +4°C° 0 mm 1 mps 672 mmHg 70%
    13:00 +5°C° 0 mm 1 mps 671 mmHg 71%
    14:00 +4°C° 0 mm 1 mps 671 mmHg 74%
    15:00 +1°C° 0 mm 0 mps 670 mmHg 76%
    16:00 0°C° 0 mm 0 mps 670 mmHg 78%
    17:00 0°C° 0 mm 1 mps 670 mmHg 78%
    18:00 -1°C° 0 mm 1 mps 670 mmHg 78%
    19:00 -2°C° 0 mm 1 mps 670 mmHg 78%
    20:00 -2°C° 0 mm 1 mps 670 mmHg 78%
    21:00 -2°C° 0 mm 1 mps 670 mmHg 78%
    22:00 -2°C° 0 mm 1 mps 670 mmHg 78%
    23:00 -2°C° 0 mm 1 mps 670 mmHg 78%

    29 November, Wednesday

    Time Temperature Precipitation Wind Pressure Humidity
    00:00 -2°C° 0 mm 1 mps 669 mmHg 79%
    01:00 -2°C° 0 mm 1 mps 669 mmHg 79%
    02:00 -3°C° 0 mm 1 mps 669 mmHg 80%
    03:00 -3°C° 0 mm 1 mps 669 mmHg 81%
    04:00 -3°C° 0 mm 1 mps 669 mmHg 82%
    05:00 -3°C° 0 mm 1 mps 668 mmHg 83%
    06:00 -4°C° 0 mm 1 mps 668 mmHg 83%
    07:00 -4°C° 0 mm 1 mps 668 mmHg 84%
    08:00 -3°C° 0 mm 1 mps 668 mmHg 83%
    09:00 -1°C° 0 mm 1 mps 668 mmHg 82%
    10:00 0°C° 0 mm 1 mps 668 mmHg 81%
    11:00 0°C° 0 mm 1 mps 668 mmHg 81%
    12:00 +1°C° 0 mm 1 mps 668 mmHg 81%
    13:00 +2°C° 0 mm 1 mps 667 mmHg 80%
    14:00 +1°C° 0.1 mm 1 mps 667 mmHg 85%
    15:00 +1°C° 0.1 mm 1 mps 667 mmHg 89%
    16:00 0°C° 0.1 mm 1 mps 667 mmHg 93%
    17:00 0°C° 0.3 mm 1 mps 667 mmHg 94%
    18:00 -1°C° 0.3 mm 1 mps 667 mmHg 95%
    19:00 -1°C° 0.3 mm 1 mps 667 mmHg 95%
    20:00 -1°C° 0.2 mm 1 mps 667 mmHg 95%
    21:00 -2°C° 0.2 mm 1 mps 667 mmHg 95%
    22:00 -2°C° 0.2 mm 1 mps 667 mmHg 96%
    23:00 -3°C° 0.1 mm 1 mps 667 mmHg 95%

    30 November, Thursday

    Time Temperature Precipitation Wind Pressure Humidity
    00:00 -3°C° 0.1 mm 1 mps 667 mmHg 95%
    01:00 -4°C° 0.1 mm 1 mps 666 mmHg 95%
    02:00 -4°C° 0 mm 1 mps 666 mmHg 95%
    03:00 -4°C° 0 mm 1 mps 666 mmHg 95%
    04:00 -6°C° 0 mm 1 mps 666 mmHg 95%
    05:00 -6°C° 0 mm 1 mps 666 mmHg 94%
    06:00 -6°C° 0 mm 1 mps 666 mmHg 93%
    07:00 -6°C° 0 mm 1 mps 666 mmHg 92%
    08:00 -4°C° 0 mm 1 mps 666 mmHg 90%
    09:00 -3°C° 0 mm 1 mps 666 mmHg 87%
    10:00 -2°C° 0 mm 1 mps 667 mmHg 85%
    11:00 -1°C° 0 mm 1 mps 666 mmHg 84%
    12:00 -1°C° 0 mm 1 mps 666 mmHg 83%
    13:00 0°C° 0 mm 1 mps 666 mmHg 82%
    14:00 -1°C° 0.1 mm 1 mps 666 mmHg 85%
    15:00 -2°C° 0.1 mm 1 mps 666 mmHg 88%
    16:00 -2°C° 0.1 mm 1 mps 666 mmHg 91%
    17:00 -3°C° 0 mm 1 mps 666 mmHg 92%
    18:00 -4°C° 0 mm 1 mps 666 mmHg 92%
    19:00 -4°C° 0 mm 1 mps 667 mmHg 93%
    20:00 -6°C° 0.1 mm 1 mps 667 mmHg 93%
    21:00 -6°C° 0.1 mm 1 mps 667 mmHg 93%
    22:00 -6°C° 0.1 mm 1 mps 667 mmHg 93%
    23:00 -6°C° 0.1 mm 1 mps 667 mmHg 93%
    Show more